Flag for Australia Weather past 2 weeks in Broome, Western Australia, Australia

Now
72 °F

Passing clouds.


Feels Like: 69 °F
Forecast: 68 / 84 °F
Wind: 9 mph from Southwest

Location: Broome Airport

Current Time: Sep 5, 2015 at 3:50:31 AM

Latest Report: Sep 5, 2015 at 3:00 AM


Visibility: N/A

Pressure: 29.98 "Hg

Humidity: 90%

Dew point: 69 °F

Location of BroomeLocation

Historic Weather in Broome — Graph

°F

Broome temperature yesterday

Maximum temperature yesterday: 90 °F (at 12:00 PM)
Minimum temperature yesterday: 66 °F (at 11:00 PM)
Average temperature yesterday: 75 °F

Past Weeks' High & Low Weather Summary

 TemperatureHumidityPressure
High90 °F (Sep 4, 12:00 PM)99% (Aug 21, 6:00 AM)30.07 "Hg (Aug 21, 6:00 AM)
Low59 °F (Aug 22, 6:00 AM)14% (Aug 26, 11:00 AM)29.90 "Hg (Aug 25, 3:00 PM)
Average75 °F71%29.98 "Hg
* Reported Aug 21 2:00 AM — Sep 5 2:00 AM, Broome, Weather by CustomWeather, © 2015

Note: Actual official high and low records may vary slightly from our data, if they occured in-between our weather recording intervals... More about our weather records

Advertising

Broome weather history for previous 24 hours

 ConditionsComfort  
Time TempWeatherWind HumidityBarometerVisibility
2:00 AM
Sat, Sep 5
72 °FMild.12 mph92%29.98 "HgN/A
12:00 AM65 °FMild.No wind92%30.01 "HgN/A
11:00 PM
Fri, Sep 4
66 °FMild.No wind94%30.03 "HgN/A
9:00 PM71 °FClear.No wind86%30.02 "Hg16 mi
8:00 PM76 °FMild.6 mph80%30.02 "HgN/A
6:00 PM78 °FClear.12 mph69%29.98 "Hg25 mi
5:00 PM80 °FWarm.15 mph64%29.96 "HgN/A
3:00 PM84 °FSunny.14 mph52%29.96 "Hg25 mi
2:00 PM84 °FWarm.13 mph48%29.97 "HgN/A
12:00 PM90 °FPassing clouds.6 mph20%30.01 "Hg25 mi
11:00 AM83 °FPleasantly warm.7 mph37%30.04 "HgN/A
9:00 AM73 °FPassing clouds.6 mph72%30.07 "Hg25 mi
8:00 AM70 °FMild.10 mph80%30.07 "HgN/A
6:00 AM69 °FHaze.9 mph91%30.02 "Hg19 mi
5:00 AM70 °FMild.8 mph92%30.01 "HgN/A
3:00 AM70 °FMild.6 mph89%29.99 "HgN/A
Weather by CustomWeather, © 2015

See weather overviewHow to use our weather pages